Dallas/Ft Worth, TX

10:28 AM CST on February 24, 2018 (GMT -0600)
Dallas-Fort Worth International

Weather History for KDFW - September, 2012

Change the Weather History Date:

Sunday, September 9, 2012

  Actual Average Record
Temperature  
Mean Temperature 74 °F 80 °F  
Max Temperature 91 °F 91 °F 101 °F (1954)
Min Temperature 57 °F 70 °F 55 °F (1956)
Degree Days  
Heating Degree Days 0 0  
Month to date heating degree days 0 0  
Since 1 July heating degree days 0 0  
Cooling Degree Days 9 15  
Month to date cooling degree days 198 150  
Year to date cooling degree days 2858 2332  
Growing Degree Days 26 (Base 50)    
Moisture  
Dew Point 46 °F    
Average Humidity 45    
Maximum Humidity 72    
Minimum Humidity 17    
Precipitation  
Precipitation 0.00 in 0.09 in 2.00 in (2015)
Month to date precipitation 0.03 0.85  
Year to date precipitation 26.52 24.96  
Sea Level Pressure  
Sea Level Pressure 30.08 in    
Wind  
Wind Speed 4 mph (NNW)    
Max Wind Speed 16 mph    
Max Gust Speed 22 mph    
Visibility 10 miles    
Events      
T = Trace of Precipitation, MM = Missing Value Source: NWS Daily Summary

Daily Weather History Graph

Daily Weather History Graph

Search for Another Location

Airport or City:

Trip Planner

Search our weather history database for the weather conditions in past years. The results will help you decide how hot, cold, wet, or windy it might be!

Date:

Astronomy

Sep. 09, 2012 Rise Set
Actual Time 7:08 AM CDT 7:41 PM CDT
Civil Twilight 6:43 AM CDT 8:06 PM CDT
Nautical Twilight 6:14 AM CDT 8:35 PM CDT
Astronomical Twilight 5:44 AM CDT 9:05 PM CDT
Moon 12:52 AM CDT (9/9) 3:14 PM CDT (9/9)
Length of Visible Light 13h 23m
Length of Day
12h 33m
Last Quarter, 39% of the Moon is Illuminated
Sep 9
Last Quarter
Sep 15
New
Sep 22
First Quarter
Sep 29
Full
Oct 8
Last Quarter

Hourly Weather History & Observations

Time (CDT) Temp. Dew Point Humidity Pressure Visibility Wind Dir Wind Speed Gust Speed Precip Events Conditions
12:53 AM 69.1 °F 52.0 °F 54% 30.06 in 10.0 mi NNW 8.1 mph - N/A   Clear
1:53 AM 66.9 °F 52.0 °F 59% 30.06 in 10.0 mi NNW 6.9 mph - N/A   Clear
2:53 AM 66.0 °F 52.0 °F 60% 30.06 in 10.0 mi NW 5.8 mph - N/A   Clear
3:53 AM 64.9 °F 51.1 °F 61% 30.07 in 10.0 mi Calm Calm - N/A   Clear
4:53 AM 64.0 °F 51.1 °F 63% 30.07 in 10.0 mi NW 4.6 mph - N/A   Partly Cloudy
5:53 AM 62.1 °F 51.1 °F 67% 30.08 in 10.0 mi West 5.8 mph - N/A   Partly Cloudy
6:53 AM 61.0 °F 50.0 °F 67% 30.09 in 10.0 mi Calm Calm - N/A   Partly Cloudy
7:53 AM 63.0 °F 54.0 °F 72% 30.12 in 10.0 mi North 5.8 mph - N/A   Scattered Clouds
8:53 AM 70.0 °F 51.1 °F 51% 30.13 in 10.0 mi NNW 4.6 mph - N/A   Scattered Clouds
9:53 AM 75.9 °F 48.0 °F 37% 30.14 in 10.0 mi North 5.8 mph - N/A   Scattered Clouds
10:53 AM 78.8 °F 44.6 °F 30% 30.17 in 10.0 mi Calm Calm - N/A   Scattered Clouds
11:53 AM 82.9 °F 44.1 °F 25% 30.14 in 10.0 mi ENE 5.8 mph - N/A   Mostly Cloudy
12:53 PM 82.9 °F 43.0 °F 24% 30.12 in 10.0 mi North 6.9 mph - N/A   Mostly Cloudy
1:53 PM 87.1 °F 41.0 °F 20% 30.09 in 10.0 mi NNE 12.7 mph 21.9 mph N/A   Scattered Clouds
2:53 PM 87.1 °F 39.0 °F 18% 30.07 in 10.0 mi North 6.9 mph - N/A   Scattered Clouds
3:53 PM 88.0 °F 39.0 °F 18% 30.05 in 10.0 mi Variable 4.6 mph - N/A   Scattered Clouds
4:53 PM 90.0 °F 39.9 °F 17% 30.03 in 10.0 mi North 6.9 mph - N/A   Scattered Clouds
5:53 PM 87.1 °F 39.9 °F 19% 30.03 in 10.0 mi SE 3.5 mph - N/A   Mostly Cloudy
6:53 PM 86.0 °F 42.1 °F 21% 30.03 in 10.0 mi Calm Calm - N/A   Mostly Cloudy
7:53 PM 82.9 °F 43.0 °F 24% 30.03 in 10.0 mi South 3.5 mph - N/A   Scattered Clouds
8:53 PM 80.1 °F 43.0 °F 27% 30.04 in 10.0 mi SSW 3.5 mph - N/A   Partly Cloudy
9:53 PM 78.1 °F 46.0 °F 32% 30.05 in 10.0 mi Calm Calm - N/A   Partly Cloudy
10:53 PM 77.0 °F 46.9 °F 34% 30.05 in 10.0 mi Calm Calm - N/A   Partly Cloudy
11:53 PM 75.9 °F 48.0 °F 37% 30.04 in 10.0 mi Calm Calm - N/A   Partly Cloudy